BEIDOU-2 G1

Last updated on Thu Aug 13 2026 00:02:58 GMT+0000 (Coordinated Universal Time)

1 36287U 10001A 26224.64436399 -.00000297 00000+0 00000+0 0 9995 2 36287 4.4224 60.1790 0001757 271.5018 1.8247 1.00273812 60733
UTC large
Height (km)
Speed (km/s)
/
Latitude / Longitude
Inclination (degrees)
Orbital Period (minutes)
Azimuth
Elevation
Range (km)
Doppler Factor

Next 0 passes for location: London (51.5072 / 0.1276)

No passes found over London.
BEIDOU-2 G1